| time (UTC) | temp F | wind direction | speed knots | gust knots | rain 1hr in | rain 24hr in | rain mn in | humidity % | barometer mb |
| 20260904224504 | 56 | 226 | 0.0 | 0.0 | 0.00 | 0.00 | 0.00 | 94 | 1011.7 |
| 20260904223002 | 56 | 226 | 0.0 | 0.0 | 0.00 | 0.00 | 0.00 | 94 | 1011.8 |
| 20260904221502 | 56 | 226 | 0.0 | 0.0 | 0.00 | 0.00 | 0.00 | 94 | 1011.9 |
| 20260904220104 | 56 | 226 | 0.0 | 0.0 | 0.00 | 0.00 | 0.00 | 94 | 1012.0 |
| 20260904214600 | 56 | 226 | 0.0 | 0.0 | 0.00 | 0.00 | 0.00 | 94 | 1012.3 |
| 20260904213056 | 56 | 226 | 0.0 | 0.0 | 0.00 | 0.00 | 0.00 | 93 | 1012.5 |
| 20260904211554 | 57 | 226 | 0.0 | 0.0 | 0.00 | 0.00 | 0.00 | 93 | 1012.5 |
| 20260904210056 | 57 | 226 | 0.0 | 0.0 | 0.00 | 0.00 | 0.00 | 92 | 1012.7 |
| 20260904204551 | 57 | 226 | 0.0 | 0.0 | 0.00 | 0.00 | 0.00 | 92 | 1012.7 |
| 20260904203056 | 58 | 226 | 0.0 | 0.0 | 0.00 | 0.00 | 0.00 | 92 | 1012.8 |
| 20260904201550 | 58 | 226 | 0.0 | 0.0 | 0.00 | 0.00 | 0.00 | 92 | 1012.8 |
| 20260904200105 | 58 | 226 | 0.0 | 0.0 | 0.00 | 0.00 | 0.00 | 92 | 1012.9 |
| 20260904194551 | 58 | 226 | 0.0 | 0.0 | 0.00 | 0.00 | 0.00 | 92 | 1012.9 |
| 20260904193045 | 58 | 226 | 0.0 | 0.0 | 0.00 | 0.00 | 0.00 | 92 | 1012.9 |
| 20260904191545 | 58 | 226 | 0.0 | 0.0 | 0.00 | 0.00 | 0.00 | 92 | 1012.9 |
| 20260904190050 | 58 | 226 | 0.0 | 0.0 | 0.00 | 0.00 | 0.00 | 92 | 1013.0 |
| 20260904184544 | 58 | 226 | 0.0 | 0.0 | 0.00 | 0.00 | 0.00 | 92 | 1013.1 |
| 20260904183043 | 58 | 226 | 0.0 | 0.0 | 0.00 | 0.00 | 0.00 | 92 | 1013.1 |
| 20260904181543 | 58 | 226 | 0.0 | 0.0 | 0.00 | 0.00 | 0.00 | 90 | 1013.3 |
| 20260904180048 | 59 | 226 | 0.0 | 0.0 | 0.00 | 0.00 | 0.00 | 89 | 1013.2 |
| 20260904174543 | 59 | 226 | 0.0 | 0.0 | 0.00 | 0.00 | 0.00 | 89 | 1013.2 |
| 20260904173055 | 59 | 226 | 0.0 | 0.0 | 0.00 | 0.00 | 0.00 | 88 | 1013.3 |
| 20260904171546 | 60 | 226 | 0.0 | 0.0 | 0.00 | 0.00 | 0.00 | 86 | 1013.4 |
| 20260904170041 | 61 | 226 | 0.0 | 0.0 | 0.00 | 0.00 | 0.00 | 84 | 1013.4 |
| 20260904164540 | 61 | 226 | 0.0 | 0.0 | 0.00 | 0.00 | 0.00 | 83 | 1013.4 |
| 20260904163040 | 62 | 225 | 0.0 | 0.0 | 0.00 | 0.00 | 0.00 | 83 | 1013.4 |
| 20260904161540 | 62 | 208 | 0.0 | 0.0 | 0.00 | 0.00 | 0.00 | 84 | 1013.5 |
| 20260904160046 | 62 | 208 | 0.0 | 0.0 | 0.00 | 0.00 | 0.00 | 83 | 1013.4 |
| 20260904154540 | 62 | 200 | 0.0 | 0.0 | 0.00 | 0.00 | 0.00 | 84 | 1013.3 |
| 20260904153039 | 63 | 194 | 0.0 | 0.0 | 0.00 | 0.00 | 0.00 | 83 | 1013.2 |
| 20260904151539 | 63 | 194 | 0.0 | 0.0 | 0.00 | 0.00 | 0.00 | 83 | 1013.0 |
| 20260904150036 | 63 | 194 | 0.0 | 0.0 | 0.00 | 0.00 | 0.00 | 83 | 1013.0 |
| 20260904144536 | 64 | 235 | 0.0 | 0.0 | 0.00 | 0.00 | 0.00 | 83 | 1013.0 |
| 20260904143037 | 64 | 278 | 0.0 | 0.0 | 0.00 | 0.00 | 0.00 | 82 | 1012.8 |
| 20260904141542 | 65 | 190 | 0.0 | 4.3 | 0.00 | 0.00 | 0.00 | 79 | 1013.0 |
| 20260904140033 | 65 | 208 | 0.0 | 0.0 | 0.00 | 0.00 | 0.00 | 78 | 1013.0 |
| 20260904134550 | 66 | 168 | 0.0 | 2.6 | 0.00 | 0.00 | 0.00 | 75 | 1013.0 |
| 20260904133035 | 67 | 195 | 0.0 | 6.1 | 0.00 | 0.00 | 0.00 | 71 | 1013.0 |
| 20260904131533 | 71 | 163 | 0.0 | 4.3 | 0.00 | 0.00 | 0.00 | 65 | 1013.0 |
| 20260904130035 | 72 | 239 | 0.0 | 0.0 | 0.00 | 0.00 | 0.00 | 62 | 1012.6 |
| 20260904124532 | 72 | 195 | 0.0 | 0.0 | 0.00 | 0.00 | 0.00 | 64 | 1012.6 |
| 20260904123030 | 72 | 202 | 0.0 | 0.0 | 0.00 | 0.00 | 0.00 | 63 | 1012.9 |
| 20260904121530 | 72 | 214 | 0.0 | 2.6 | 0.00 | 0.00 | 0.00 | 64 | 1012.6 |
| 20260904120029 | 71 | 264 | 0.0 | 0.0 | 0.00 | 0.00 | 0.00 | 67 | 1012.7 |
| 20260904114530 | 71 | 264 | 0.0 | 0.0 | 0.00 | 0.00 | 0.00 | 66 | 1012.8 |
| 20260904113029 | 71 | 250 | 0.0 | 0.0 | 0.00 | 0.00 | 0.00 | 64 | 1013.0 |
| 20260904111528 | 72 | 259 | 0.0 | 3.5 | 0.00 | 0.00 | 0.00 | 62 | 1012.9 |
| 20260904110028 | 72 | 237 | 0.0 | 2.6 | 0.00 | 0.00 | 0.00 | 63 | 1013.0 |
| 20260904104527 | 73 | 203 | 0.0 | 0.0 | 0.00 | 0.00 | 0.00 | 62 | 1012.9 |
| 20260904103027 | 72 | 224 | 0.0 | 0.0 | 0.00 | 0.00 | 0.00 | 62 | 1013.1 |
| 20260904101527 | 72 | 209 | 0.0 | 5.2 | 0.00 | 0.00 | 0.00 | 62 | 1013.0 |
| 20260904100026 | 73 | 292 | 0.0 | 4.3 | 0.00 | 0.00 | 0.00 | 61 | 1013.0 |
| 20260904094539 | 73 | 205 | 0.0 | 7.0 | 0.00 | 0.00 | 0.00 | 61 | 1013.2 |
| 20260904093023 | 72 | 150 | 0.0 | 2.6 | 0.00 | 0.00 | 0.00 | 63 | 1013.1 |
| 20260904091523 | 72 | 216 | 0.0 | 4.3 | 0.00 | 0.00 | 0.00 | 62 | 1013.2 |
| 20260904090039 | 72 | 147 | 0.9 | 5.2 | 0.00 | 0.00 | 0.00 | 64 | 1013.2 |
| 20260904084522 | 72 | 193 | 0.0 | 4.3 | 0.00 | 0.00 | 0.00 | 64 | 1013.3 |
| 20260904083027 | 71 | 186 | 0.0 | 3.5 | 0.00 | 0.00 | 0.00 | 65 | 1013.2 |
| 20260904081528 | 71 | 191 | 0.9 | 5.2 | 0.00 | 0.00 | 0.00 | 66 | 1013.4 |
| 20260904080015 | 70 | 163 | 0.0 | 0.9 | 0.00 | 0.00 | 0.00 | 69 | 1013.5 |
| 20260904074517 | 69 | 134 | 0.0 | 3.5 | 0.00 | 0.00 | 0.00 | 70 | 1013.4 |
| 20260904073012 | 70 | 171 | 0.0 | 4.3 | 0.00 | 0.00 | 0.00 | 69 | 1013.3 |
| 20260904071512 | 69 | 162 | 0.0 | 0.0 | 0.00 | 0.00 | 0.00 | 70 | 1013.5 |
| 20260904070011 | 70 | 222 | 0.0 | 0.0 | 0.00 | 0.00 | 0.00 | 68 | 1013.6 |
| 20260904064509 | 69 | 168 | 0.0 | 3.5 | 0.00 | 0.00 | 0.00 | 68 | 1013.7 |
| 20260904063011 | 69 | 193 | 0.0 | 0.9 | 0.00 | 0.00 | 0.00 | 69 | 1013.8 |
| 20260904061516 | 69 | 155 | 0.0 | 3.5 | 0.00 | 0.00 | 0.00 | 69 | 1013.9 |
| 20260904060002 | 67 | 143 | 0.0 | 2.6 | 0.00 | 0.00 | 0.00 | 72 | 1013.8 |
| 20260904054504 | 67 | 224 | 0.0 | 2.6 | 0.00 | 0.00 | 0.00 | 71 | 1013.9 |
| 20260904053105 | 67 | 179 | 0.0 | 0.0 | 0.00 | 0.00 | 0.00 | 75 | 1013.9 |
| 20260904051555 | 66 | 166 | 0.0 | 0.0 | 0.00 | 0.00 | 0.00 | 76 | 1013.9 |
| 20260904050056 | 65 | 158 | 0.0 | 0.0 | 0.00 | 0.00 | 0.00 | 77 | 1013.8 |
| 20260904044551 | 64 | 213 | 0.0 | 0.0 | 0.00 | 0.00 | 0.00 | 78 | 1013.9 |
| 20260904043057 | 63 | 213 | 0.0 | 0.0 | 0.00 | 0.00 | 0.00 | 80 | 1013.9 |
| 20260904041544 | 62 | 183 | 0.0 | 0.0 | 0.00 | 0.00 | 0.00 | 82 | 1013.8 |
| 20260904040056 | 60 | 183 | 0.0 | 0.0 | 0.00 | 0.00 | 0.00 | 83 | 1013.7 |
| 20260904034538 | 59 | 183 | 0.0 | 0.0 | 0.00 | 0.00 | 0.00 | 85 | 1013.8 |
| 20260904033041 | 58 | 211 | 0.0 | 0.0 | 0.00 | 0.00 | 0.00 | 86 | 1013.7 |
| 20260904031549 | 57 | 241 | 0.0 | 0.0 | 0.00 | 0.00 | 0.00 | 88 | 1013.6 |
| 20260904030036 | 56 | 241 | 0.0 | 0.0 | 0.00 | 0.00 | 0.00 | 89 | 1013.6 |
| 20260904024536 | 56 | 241 | 0.0 | 0.0 | 0.00 | 0.00 | 0.00 | 91 | 1013.5 |
| 20260904023035 | 55 | 241 | 0.0 | 0.0 | 0.00 | 0.00 | 0.00 | 92 | 1013.5 |
| 20260904021533 | 54 | 241 | 0.0 | 0.0 | 0.00 | 0.00 | 0.00 | 93 | 1013.4 |
| 20260904020033 | 53 | 241 | 0.0 | 0.0 | 0.00 | 0.00 | 0.00 | 93 | 1013.4 |
| 20260904014532 | 53 | 241 | 0.0 | 0.0 | 0.00 | 0.00 | 0.00 | 92 | 1013.4 |
| 20260904013029 | 54 | 241 | 0.0 | 0.0 | 0.00 | 0.00 | 0.00 | 91 | 1013.4 |
| 20260904011530 | 54 | 241 | 0.0 | 0.0 | 0.00 | 0.00 | 0.00 | 92 | 1013.3 |
| 20260904010029 | 54 | 241 | 0.0 | 0.0 | 0.00 | 0.00 | 0.00 | 92 | 1013.3 |
| 20260904004525 | 54 | 241 | 0.0 | 0.0 | 0.00 | 0.00 | 0.00 | 91 | 1013.2 |
| 20260904003023 | 54 | 241 | 0.0 | 0.0 | 0.00 | 0.00 | 0.00 | 91 | 1013.1 |
| 20260904001522 | 54 | 241 | 0.0 | 0.0 | 0.00 | 0.00 | 0.00 | 91 | 1013.1 |
| 20260904000022 | 54 | 241 | 0.0 | 0.0 | 0.00 | 0.00 | 0.00 | 90 | 1013.0 |
| 20260903234520 | 54 | 241 | 0.0 | 0.0 | 0.00 | 0.00 | 0.00 | 90 | 1013.0 |
| 20260903233018 | 55 | 241 | 0.0 | 0.0 | 0.00 | 0.00 | 0.00 | 89 | 1012.9 |
| 20260903231518 | 55 | 241 | 0.0 | 0.0 | 0.00 | 0.00 | 0.00 | 88 | 1012.8 |
| 20260903230021 | 56 | 241 | 0.0 | 0.0 | 0.00 | 0.00 | 0.00 | 88 | 1012.8 |